TimePDT,TemperatureF,Dew PointF,Humidity,Sea Level PressureIn,VisibilityMPH,Wind Direction,Wind SpeedMPH,Gust SpeedMPH,PrecipitationIn,Events,Conditions,WindDirDegrees,DateUTC
12:16 AM,48.2,44.6,87,30.19,10.0,Calm,Calm,-,N/A,,Overcast,0,2013-04-03 07:16:00
12:53 AM,48.9,46.0,90,30.21,10.0,Calm,Calm,-,0.00,,Overcast,0,2013-04-03 07:53:00
1:53 AM,48.0,46.0,93,30.21,10.0,Calm,Calm,-,N/A,,Overcast,0,2013-04-03 08:53:00
2:53 AM,48.0,46.0,93,30.21,4.0,Calm,Calm,-,0.02,Rain,Light Rain,0,2013-04-03 09:53:00
3:53 AM,48.0,46.0,93,30.20,7.0,Calm,Calm,-,0.00,,Overcast,0,2013-04-03 10:53:00
4:53 AM,48.0,46.0,93,30.19,5.0,Calm,Calm,-,N/A,,Overcast,0,2013-04-03 11:53:00
5:07 AM,48.2,46.4,93,30.17,6.0,Calm,Calm,-,N/A,,Overcast,0,2013-04-03 12:07:00
5:53 AM,48.0,46.9,96,30.20,3.0,Calm,Calm,-,N/A,,Overcast,0,2013-04-03 12:53:00
6:53 AM,48.0,46.0,93,30.19,10.0,Calm,Calm,-,N/A,,Overcast,0,2013-04-03 13:53:00
7:53 AM,48.0,46.9,96,30.20,8.0,Calm,Calm,-,N/A,,Overcast,0,2013-04-03 14:53:00
8:00 AM,48.2,46.4,93,30.18,7.0,Calm,Calm,-,N/A,,Overcast,0,2013-04-03 15:00:00
8:14 AM,48.2,46.4,93,30.18,8.0,Calm,Calm,-,N/A,,Overcast,0,2013-04-03 15:14:00
8:35 AM,48.2,46.4,93,30.17,9.0,Calm,Calm,-,N/A,,Overcast,0,2013-04-03 15:35:00
8:53 AM,48.9,46.9,93,30.19,9.0,Calm,Calm,-,N/A,,Overcast,0,2013-04-03 15:53:00
9:53 AM,51.1,48.0,89,30.18,7.0,Calm,Calm,-,N/A,,Overcast,0,2013-04-03 16:53:00
10:00 AM,51.8,48.2,88,30.16,7.0,Calm,Calm,-,N/A,,Overcast,0,2013-04-03 17:00:00
10:53 AM,53.1,48.0,83,30.17,6.0,Variable,3.5,-,N/A,,Haze,0,2013-04-03 17:53:00
11:11 AM,53.6,48.2,82,30.15,7.0,Calm,Calm,-,N/A,,Overcast,0,2013-04-03 18:11:00
11:53 AM,55.9,48.0,75,30.17,10.0,WNW,3.5,-,N/A,,Mostly Cloudy,290,2013-04-03 18:53:00
12:36 PM,55.4,46.4,72,30.14,10.0,Variable,3.5,-,N/A,,Overcast,0,2013-04-03 19:36:00
12:53 PM,57.0,48.0,72,30.16,10.0,West,5.8,-,N/A,,Overcast,270,2013-04-03 19:53:00
1:53 PM,57.0,46.9,69,30.15,10.0,Variable,5.8,-,N/A,,Overcast,0,2013-04-03 20:53:00
2:53 PM,59.0,46.0,62,30.13,10.0,NW,6.9,-,N/A,,Clear,310,2013-04-03 21:53:00
3:53 PM,57.9,45.0,62,30.12,10.0,WSW,5.8,-,N/A,,Clear,250,2013-04-03 22:53:00
4:53 PM,57.0,45.0,64,30.10,10.0,West,6.9,-,N/A,,Clear,280,2013-04-03 23:53:00
5:53 PM,55.9,44.1,64,30.09,10.0,Variable,6.9,-,N/A,,Clear,0,2013-04-04 00:53:00
6:53 PM,54.0,44.1,69,30.06,10.0,Calm,Calm,-,N/A,,Clear,0,2013-04-04 01:53:00
7:53 PM,52.0,44.1,74,30.05,10.0,Calm,Calm,-,N/A,,Clear,0,2013-04-04 02:53:00
8:53 PM,48.9,44.1,83,30.04,10.0,Calm,Calm,-,N/A,,Clear,0,2013-04-04 03:53:00
9:53 PM,46.9,42.1,83,30.03,10.0,Calm,Calm,-,N/A,,Clear,0,2013-04-04 04:53:00
10:53 PM,48.0,44.1,86,30.01,10.0,Calm,Calm,-,N/A,,Clear,0,2013-04-04 05:53:00
11:53 PM,48.0,44.1,86,30.00,10.0,Calm,Calm,-,N/A,,Clear,0,2013-04-04 06:53:00